C6025 -KPIE

Flight info

Callsign C6025
Flight time N/A
Altitude
Route
Aircraft

Departure

Time N/A
Airport -

Arrival

Time 2026-04-20 00:51
Airport St. Petersburg Clearwater International Airport (KPIE)
Time Latitude Longitude Altitude Speed Heading
2026-04-20 00:45 27.75731 -82.71498 508 ft 114 kts 360°
2026-04-20 00:46 27.76541 -82.71444 514 ft 117 kts
2026-04-20 00:46 27.77353 -82.71370 513 ft 117 kts
2026-04-20 00:46 27.78157 -82.71275 506 ft 114 kts
2026-04-20 00:46 27.78970 -82.71159 510 ft 121 kts
2026-04-20 00:47 27.79755 -82.71027 511 ft 117 kts
2026-04-20 00:47 27.80573 -82.70963 509 ft 119 kts 356°
2026-04-20 00:47 27.81385 -82.71028 504 ft 116 kts 357°
2026-04-20 00:47 27.82205 -82.71066 532 ft 114 kts 357°
2026-04-20 00:48 27.83016 -82.71121 530 ft 115 kts 358°
2026-04-20 00:48 27.83810 -82.70989 528 ft 120 kts 14°
2026-04-20 00:48 27.84611 -82.70760 526 ft 122 kts 15°
2026-04-20 00:48 27.85358 -82.70461 532 ft 117 kts 15°
2026-04-20 00:49 27.86237 -82.70181 519 ft 129 kts 15°
2026-04-20 00:49 27.87031 -82.69964 529 ft 121 kts
2026-04-20 00:49 27.87947 -82.69802 518 ft 139 kts
2026-04-20 00:49 27.88782 -82.69730 486 ft 110 kts 359°
2026-04-20 00:50 27.89495 -82.69707 415 ft 91 kts 349°
2026-04-20 00:50 27.90075 -82.69723 318 ft 78 kts 355°
2026-04-20 00:50 27.90600 -82.69761 254 ft 70 kts
2026-04-20 00:50 27.91065 -82.69717 209 ft 66 kts 14°
2026-04-20 00:51 27.91313 -82.69563 170 ft 16 kts 75°
2026-04-20 00:51 27.91317 -82.69507 55 ft 5 kts 87°
2026-04-20 00:51 27.91311 -82.69486 25 ft 0 kts 132°
2026-04-20 00:51 27.91307 -82.69480 23 ft 2 kts 134°